BXS2487 LFRB-LFRD

Flight info

Callsign BXS2487
Flight time 0h 48m
Altitude 30000
Route N12 ROAD LAMBALLE PLUDUNO COAST LINE
Aircraft PSTM/L-FR/C

Departure

Time 2026-05-05 19:16
Airport Brest Bretagne airport (LFRB)

Arrival

Time 2026-05-05 20:04
Airport Dinard Pleurtuit Saint-Malo airport (LFRD)
Time Latitude Longitude Altitude Speed Heading
2026-05-05 19:15 48.45473 -4.38020 1900 ft 119 kts 70°
2026-05-05 19:16 48.45664 -4.36821 2291 ft 117 kts 72°
2026-05-05 19:16 48.45450 -4.35637 2646 ft 131 kts 129°
2026-05-05 19:16 48.44549 -4.35162 2839 ft 148 kts 173°
2026-05-05 19:16 48.43536 -4.34793 2930 ft 151 kts 142°
2026-05-05 19:17 48.42996 -4.33564 2970 ft 133 kts 90°
2026-05-05 19:17 48.42998 -4.32275 2982 ft 120 kts 80°
2026-05-05 19:17 48.43061 -4.31037 2986 ft 118 kts 78°
2026-05-05 19:17 48.43135 -4.29805 2982 ft 118 kts 78°
2026-05-05 19:18 48.43219 -4.28579 2993 ft 118 kts 77°
2026-05-05 19:18 48.43309 -4.27372 3019 ft 114 kts 79°
2026-05-05 19:18 48.43372 -4.26148 3016 ft 120 kts 80°
2026-05-05 19:18 48.43450 -4.24856 3010 ft 126 kts 78°
2026-05-05 19:19 48.43552 -4.23547 3005 ft 128 kts 76°
2026-05-05 19:19 48.43690 -4.22218 3005 ft 128 kts 74°
2026-05-05 19:19 48.43839 -4.20894 3004 ft 128 kts 74°
2026-05-05 19:19 48.43994 -4.19574 3006 ft 128 kts 74°
2026-05-05 19:20 48.44158 -4.18254 3001 ft 128 kts 73°
2026-05-05 19:20 48.44326 -4.16934 2999 ft 129 kts 73°
2026-05-05 19:20 48.44488 -4.15611 2994 ft 128 kts 73°
2026-05-05 19:20 48.44644 -4.14291 3001 ft 128 kts 73°
2026-05-05 19:21 48.44803 -4.12973 2999 ft 128 kts 73°
2026-05-05 19:21 48.44967 -4.11659 2993 ft 127 kts 73°
2026-05-05 19:21 48.45122 -4.10347 2996 ft 127 kts 73°
2026-05-05 19:21 48.45275 -4.09031 3003 ft 127 kts 73°
2026-05-05 19:22 48.45434 -4.07719 2999 ft 127 kts 73°
2026-05-05 19:22 48.45596 -4.06412 2999 ft 127 kts 73°
2026-05-05 19:22 48.45757 -4.05099 2999 ft 127 kts 73°
2026-05-05 19:22 48.45915 -4.03790 3008 ft 127 kts 73°
2026-05-05 19:23 48.46065 -4.02476 3008 ft 128 kts 73°
2026-05-05 19:23 48.46221 -4.01156 2999 ft 128 kts 71°
2026-05-05 19:23 48.46441 -3.99863 3001 ft 127 kts 69°
2026-05-05 19:23 48.46690 -3.98585 3003 ft 127 kts 68°
2026-05-05 19:24 48.46950 -3.97322 2992 ft 125 kts 67°
2026-05-05 19:24 48.47203 -3.96088 2989 ft 124 kts 67°
2026-05-05 19:24 48.47456 -3.94843 2990 ft 124 kts 66°
2026-05-05 19:24 48.47706 -3.93596 2999 ft 125 kts 67°
2026-05-05 19:25 48.48011 -3.92382 3002 ft 123 kts 58°
2026-05-05 19:25 48.48422 -3.91252 2998 ft 123 kts 54°
2026-05-05 19:25 48.48861 -3.90151 3003 ft 123 kts 53°
2026-05-05 19:25 48.49305 -3.89057 2995 ft 122 kts 53°
2026-05-05 19:26 48.49754 -3.87969 3002 ft 122 kts 53°
2026-05-05 19:26 48.50208 -3.86881 3002 ft 123 kts 53°
2026-05-05 19:26 48.50664 -3.85792 2998 ft 122 kts 52°
2026-05-05 19:26 48.51117 -3.84707 3001 ft 122 kts 53°
2026-05-05 19:27 48.51569 -3.83622 3007 ft 122 kts 53°
2026-05-05 19:27 48.52023 -3.82537 3003 ft 122 kts 53°
2026-05-05 19:27 48.52476 -3.81457 2999 ft 122 kts 53°
2026-05-05 19:27 48.52922 -3.80390 2997 ft 122 kts 52°
2026-05-05 19:28 48.53371 -3.79306 2999 ft 122 kts 53°
2026-05-05 19:28 48.53820 -3.78223 3004 ft 122 kts 53°
2026-05-05 19:28 48.54268 -3.77133 3003 ft 123 kts 54°
2026-05-05 19:28 48.54684 -3.76010 3002 ft 123 kts 56°
2026-05-05 19:29 48.55085 -3.74871 3008 ft 123 kts 56°
2026-05-05 19:29 48.55482 -3.73724 2995 ft 123 kts 57°
2026-05-05 19:29 48.55880 -3.72578 2999 ft 123 kts 57°
2026-05-05 19:29 48.56279 -3.71427 2986 ft 124 kts 57°
2026-05-05 19:30 48.56675 -3.70285 2988 ft 122 kts 57°
2026-05-05 19:30 48.57069 -3.69154 2995 ft 122 kts 57°
2026-05-05 19:30 48.57465 -3.68016 3002 ft 123 kts 57°
2026-05-05 19:30 48.57862 -3.66870 3008 ft 124 kts 57°
2026-05-05 19:31 48.58261 -3.65716 3005 ft 124 kts 57°
2026-05-05 19:31 48.58660 -3.64565 2995 ft 123 kts 57°
2026-05-05 19:31 48.59058 -3.63421 2997 ft 122 kts 57°
2026-05-05 19:31 48.59172 -3.62150 2994 ft 134 kts 103°
2026-05-05 19:32 48.58574 -3.61033 2998 ft 141 kts 127°
2026-05-05 19:32 48.58010 -3.59854 3004 ft 136 kts 105°
2026-05-05 19:32 48.57724 -3.58508 2994 ft 134 kts 98°
2026-05-05 19:32 48.57475 -3.57155 2995 ft 133 kts 97°
2026-05-05 19:33 48.57234 -3.55799 2996 ft 134 kts 97°
2026-05-05 19:33 48.56995 -3.54448 2994 ft 133 kts 97°
2026-05-05 19:33 48.56756 -3.53092 3004 ft 134 kts 97°
2026-05-05 19:33 48.56518 -3.51729 3002 ft 134 kts 97°
2026-05-05 19:34 48.56293 -3.50369 2986 ft 133 kts 95°
2026-05-05 19:34 48.56090 -3.49012 2988 ft 132 kts 95°
2026-05-05 19:34 48.55895 -3.47651 2995 ft 133 kts 94°
2026-05-05 19:35 48.55506 -3.44927 2995 ft 133 kts 94°
2026-05-05 19:35 48.55310 -3.43569 2989 ft 132 kts 94°
2026-05-05 19:35 48.55114 -3.42217 3001 ft 132 kts 94°
2026-05-05 19:35 48.54921 -3.40859 3003 ft 133 kts 94°
2026-05-05 19:36 48.54730 -3.39488 3000 ft 134 kts 94°
2026-05-05 19:36 48.54538 -3.38115 2995 ft 134 kts 94°
2026-05-05 19:36 48.54350 -3.36761 2983 ft 133 kts 94°
2026-05-05 19:36 48.54156 -3.35397 2984 ft 132 kts 94°
2026-05-05 19:37 48.53960 -3.34045 2987 ft 131 kts 94°
2026-05-05 19:37 48.53771 -3.32701 2985 ft 131 kts 94°
2026-05-05 19:37 48.53578 -3.31354 2997 ft 132 kts 94°
2026-05-05 19:37 48.53383 -3.29990 3002 ft 134 kts 94°
2026-05-05 19:38 48.53188 -3.28617 2987 ft 134 kts 94°
2026-05-05 19:38 48.52992 -3.27243 2980 ft 134 kts 94°
2026-05-05 19:38 48.52795 -3.25876 2982 ft 133 kts 94°
2026-05-05 19:38 48.52596 -3.24508 2976 ft 133 kts 94°
2026-05-05 19:39 48.52397 -3.23142 2971 ft 133 kts 94°
2026-05-05 19:39 48.52201 -3.21782 2974 ft 132 kts 94°
2026-05-05 19:39 48.52003 -3.20428 2974 ft 133 kts 94°
2026-05-05 19:39 48.51803 -3.19067 2978 ft 133 kts 94°
2026-05-05 19:40 48.51601 -3.17705 2981 ft 133 kts 94°
2026-05-05 19:40 48.51398 -3.16341 2975 ft 133 kts 94°
2026-05-05 19:40 48.51191 -3.14974 2965 ft 133 kts 94°
2026-05-05 19:40 48.50989 -3.13616 2966 ft 132 kts 94°
2026-05-05 19:41 48.50792 -3.12275 2974 ft 133 kts 94°
2026-05-05 19:41 48.50592 -3.10912 2974 ft 133 kts 94°
2026-05-05 19:41 48.50392 -3.09550 2981 ft 133 kts 94°
2026-05-05 19:41 48.50191 -3.08185 2975 ft 134 kts 94°
2026-05-05 19:42 48.49989 -3.06819 2972 ft 133 kts 94°
2026-05-05 19:42 48.49788 -3.05460 2973 ft 133 kts 94°
2026-05-05 19:42 48.49591 -3.04102 2968 ft 133 kts 94°
2026-05-05 19:42 48.49390 -3.02742 2964 ft 132 kts 94°
2026-05-05 19:43 48.49187 -3.01388 2980 ft 133 kts 94°
2026-05-05 19:43 48.48986 -3.00033 2975 ft 132 kts 94°
2026-05-05 19:43 48.48789 -2.98680 2974 ft 132 kts 94°
2026-05-05 19:43 48.48590 -2.97330 2980 ft 132 kts 94°
2026-05-05 19:44 48.48390 -2.95976 2975 ft 132 kts 94°
2026-05-05 19:44 48.48195 -2.94620 2965 ft 132 kts 94°
2026-05-05 19:44 48.47995 -2.93270 2962 ft 132 kts 94°
2026-05-05 19:44 48.47791 -2.91925 2965 ft 132 kts 94°
2026-05-05 19:45 48.47585 -2.90580 2971 ft 132 kts 94°
2026-05-05 19:45 48.47379 -2.89234 2971 ft 132 kts 94°
2026-05-05 19:45 48.47172 -2.87897 2960 ft 130 kts 94°
2026-05-05 19:45 48.46971 -2.86591 2964 ft 130 kts 94°
2026-05-05 19:46 48.46767 -2.85263 2974 ft 131 kts 94°
2026-05-05 19:46 48.46561 -2.83924 2974 ft 131 kts 94°
2026-05-05 19:46 48.46351 -2.82587 2969 ft 131 kts 94°
2026-05-05 19:46 48.46143 -2.81258 2973 ft 131 kts 94°
2026-05-05 19:47 48.46097 -2.79923 2976 ft 127 kts 79°
2026-05-05 19:47 48.46150 -2.78603 2972 ft 126 kts 77°
2026-05-05 19:47 48.46224 -2.77289 2970 ft 126 kts 77°
2026-05-05 19:47 48.46299 -2.75979 2971 ft 125 kts 76°
2026-05-05 19:48 48.46370 -2.74672 2977 ft 126 kts 78°
2026-05-05 19:48 48.46358 -2.73334 2979 ft 128 kts 84°
2026-05-05 19:48 48.46298 -2.71983 2978 ft 130 kts 85°
2026-05-05 19:48 48.46227 -2.70645 2975 ft 130 kts 86°
2026-05-05 19:49 48.46156 -2.69293 2967 ft 129 kts 86°
2026-05-05 19:49 48.46105 -2.68380 2970 ft 130 kts 86°
2026-05-05 19:49 48.45999 -2.66579 2978 ft 131 kts 86°
2026-05-05 19:49 48.45920 -2.65203 2992 ft 132 kts 86°
2026-05-05 19:50 48.45841 -2.63811 2999 ft 134 kts 86°
2026-05-05 19:50 48.45767 -2.62414 2985 ft 134 kts 86°
2026-05-05 19:50 48.45692 -2.61013 2976 ft 134 kts 86°
2026-05-05 19:50 48.45618 -2.59625 2952 ft 132 kts 86°
2026-05-05 19:51 48.45543 -2.58253 2943 ft 131 kts 86°
2026-05-05 19:51 48.45500 -2.56919 2946 ft 127 kts 78°
2026-05-05 19:51 48.45602 -2.55614 2957 ft 125 kts 73°
2026-05-05 19:51 48.45753 -2.54327 2962 ft 124 kts 70°
2026-05-05 19:52 48.46118 -2.53206 2965 ft 119 kts 52°
2026-05-05 19:52 48.46567 -2.52148 2967 ft 121 kts 53°
2026-05-05 19:52 48.46954 -2.51015 2960 ft 122 kts 59°
2026-05-05 19:52 48.47274 -2.49826 2963 ft 122 kts 62°
2026-05-05 19:53 48.47570 -2.48631 2964 ft 122 kts 63°
2026-05-05 19:53 48.47853 -2.47422 2967 ft 123 kts 63°
2026-05-05 19:53 48.48138 -2.46208 2963 ft 123 kts 63°
2026-05-05 19:53 48.48427 -2.44995 2951 ft 123 kts 63°
2026-05-05 19:54 48.48725 -2.43787 2953 ft 123 kts 62°
2026-05-05 19:54 48.49026 -2.42584 2951 ft 123 kts 62°
2026-05-05 19:54 48.49330 -2.41388 2951 ft 122 kts 62°
2026-05-05 19:54 48.49638 -2.40202 2951 ft 122 kts 62°
2026-05-05 19:55 48.49944 -2.39028 2953 ft 122 kts 62°
2026-05-05 19:55 48.50253 -2.37837 2946 ft 121 kts 62°
2026-05-05 19:55 48.50562 -2.36659 2956 ft 121 kts 61°
2026-05-05 19:55 48.50892 -2.35458 2837 ft 129 kts 61°
2026-05-05 19:56 48.51251 -2.34174 2643 ft 136 kts 61°
2026-05-05 19:56 48.51625 -2.32853 2450 ft 138 kts 61°
2026-05-05 19:56 48.52010 -2.31512 2233 ft 140 kts 60°
2026-05-05 19:56 48.52388 -2.30186 2005 ft 138 kts 61°
2026-05-05 19:57 48.52725 -2.28970 1777 ft 121 kts 60°
2026-05-05 19:57 48.52963 -2.28136 1623 ft 135 kts 60°
2026-05-05 19:57 48.53389 -2.26586 1396 ft 104 kts 61°
2026-05-05 19:57 48.53661 -2.25624 1418 ft 100 kts 59°
2026-05-05 19:58 48.53946 -2.24651 1330 ft 106 kts 60°
2026-05-05 19:58 48.54158 -2.23941 1202 ft 113 kts 60°
2026-05-05 19:58 48.54506 -2.22789 1020 ft 127 kts 61°
2026-05-05 19:58 48.54861 -2.21620 1078 ft 118 kts 61°
2026-05-05 19:59 48.55195 -2.20499 1098 ft 117 kts 61°
2026-05-05 19:59 48.55521 -2.19387 1096 ft 116 kts 61°
2026-05-05 19:59 48.55853 -2.18277 1111 ft 116 kts 60°
2026-05-05 19:59 48.56180 -2.17175 1109 ft 117 kts 60°
2026-05-05 20:00 48.56507 -2.16073 1106 ft 119 kts 60°
2026-05-05 20:00 48.56646 -2.14820 973 ft 132 kts 102°
2026-05-05 20:00 48.56006 -2.13800 830 ft 142 kts 152°
2026-05-05 20:00 48.55105 -2.13269 684 ft 137 kts 160°
2026-05-05 20:01 48.54217 -2.12865 664 ft 128 kts 162°
2026-05-05 20:01 48.53419 -2.12363 620 ft 124 kts 132°
2026-05-05 20:01 48.53149 -2.11231 563 ft 113 kts 83°
2026-05-05 20:01 48.53250 -2.10084 529 ft 107 kts 65°
2026-05-05 20:02 48.53568 -2.09099 507 ft 103 kts 56°
2026-05-05 20:02 48.53943 -2.08196 496 ft 100 kts 50°
2026-05-05 20:02 48.54387 -2.07453 552 ft 90 kts 35°
2026-05-05 20:02 48.54995 -2.07144 537 ft 99 kts 359°
2026-05-05 20:03 48.55669 -2.07201 435 ft 96 kts 358°
2026-05-05 20:03 48.56321 -2.07356 396 ft 95 kts 351°
2026-05-05 20:03 48.56976 -2.07525 345 ft 96 kts 353°
2026-05-05 20:03 48.57628 -2.07696 267 ft 97 kts 353°
2026-05-05 20:04 48.58217 -2.07847 208 ft 71 kts 353°
2026-05-05 20:04 48.58396 -2.07903 211 ft 0 kts 332°